Wind_Speed
30 30 30 29 28 27 26 26 25 25 24 24 24 24 25 25 25 25 25 25 25 25 25 25 24 24 23 22 21 20 19 18 17 16 14 13 12 11 9 8 7 6 5 4 4 4 5 5 6 6 6 7 8 9 11 12 13 13 12 11 11 11 11 10 10 10 10 12 13 14 14 14 16 16 15 14 13 10 8 11 11 11 13 13 13 13 14 14
32 31 31 30 29 28 27 27 26 26 26 25 26 26 26 26 26 26 27 27 27 27 27 26 26 25 24 23 22 21 20 18 17 16 15 13 12 11 10 9 8 7 7 6 7 7 7 7 7 7 8 8 9 10 11 12 13 13 12 11 11 10 9 10 10 9 11 14 15 16 16 16 16 16 15 13 12 8 6 10 12 12 13 14 15 16 17 17
33 33 32 31 30 29 28 28 28 27 27 27 27 27 28 28 28 28 29 29 29 29 28 27 27 26 25 24 23 21 20 19 18 17 16 14 13 12 11 10 10 9 9 9 9 9 9 8 8 9 9 9 10 11 12 12 13 12 11 11 10 9 9 10 12 12 13 15 17 17 17 17 16 15 15 13 11 8 7 10 13 14 14 15 16 18 19 20
34 34 33 32 31 30 29 29 29 28 28 28 28 29 29 29 30 30 31 31 31 30 30 29 28 27 26 25 24 22 21 20 19 18 17 16 15 14 13 12 11 11 10 10 11 11 11 10 10 10 10 10 11 12 12 13 12 11 11 11 10 9 11 12 14 15 16 17 17 18 17 16 15 15 15 14 12 11 10 10 13 16 16 16 17 19 21 21
35 35 34 34 32 31 31 30 30 29 29 29 30 30 30 31 31 32 32 33 32 32 31 31 30 29 27 26 25 24 23 21 20 19 18 17 16 15 14 13 12 12 12 12 12 12 12 12 12 11 11 11 12 13 13 13 13 12 12 12 11 11 14 15 16 17 18 18 18 18 17 16 16 15 15 15 15 14 13 12 14 17 18 19 19 20 22 22
36 36 35 35 34 32 32 31 31 30 30 30 31 31 32 32 33 34 34 34 34 33 33 32 31 30 29 28 26 25 24 22 21 20 19 18 17 16 15 15 14 13 13 12 13 13 13 13 13 13 12 12 14 14 14 14 14 13 14 14 13 13 16 17 17 18 19 19 19 18 18 17 16 16 16 17 19 18 17 17 17 18 19 20 21 22 22 23
37 36 36 35 34 34 33 33 32 31 31 32 32 33 33 34 35 35 36 36 35 35 34 34 33 32 30 29 28 26 25 23 22 21 20 19 19 18 17 16 15 14 14 13 14 14 14 15 15 15 14 14 15 15 15 15 15 15 16 16 15 15 17 18 19 19 20 19 19 19 19 18 18 18 18 20 22 22 21 21 21 21 21 21 22 22 23 22
37 37 36 36 35 34 34 33 33 32 32 33 33 34 35 35 36 37 37 37 37 36 36 35 34 33 32 30 29 28 27 25 24 22 21 21 20 20 19 18 17 16 16 15 15 15 16 16 16 16 16 16 16 16 16 16 16 16 17 18 18 17 18 19 20 20 21 21 21 20 20 19 20 21 21 22 25 24 23 23 23 22 22 22 22 22 22 21
38 37 37 36 36 35 35 34 34 34 33 34 35 35 36 37 37 38 38 38 38 37 37 36 35 34 33 32 30 29 28 26 25 24 23 22 22 21 20 19 19 18 18 17 17 17 17 18 17 17 18 17 17 18 18 18 18 18 19 19 20 20 19 20 21 21 22 22 22 22 22 21 22 23 22 24 26 25 24 23 22 22 22 22 22 22 22 21
38 38 37 37 37 36 36 35 35 35 35 35 36 37 37 38 38 39 39 39 39 38 38 37 36 35 34 33 32 31 29 27 27 26 25 24 23 23 22 21 21 20 20 19 19 19 19 19 19 19 19 19 19 19 19 19 20 20 20 20 21 21 21 21 22 23 23 23 24 24 24 23 24 25 24 25 25 24 23 22 21 21 21 21 21 22 22 22
38 38 38 38 37 37 37 37 36 36 36 36 37 38 39 39 40 40 40 40 40 39 39 38 37 36 36 34 33 32 30 29 29 28 27 26 25 25 24 23 23 22 22 21 21 20 20 21 21 21 21 20 20 21 21 21 21 22 22 22 23 23 23 23 23 24 24 24 24 26 26 25 26 26 25 25 24 23 22 21 21 21 21 21 21 22 23 24
39 39 39 38 38 38 38 38 37 37 37 37 38 39 40 40 41 41 41 40 40 40 39 39 38 37 37 35 35 34 32 31 30 29 28 27 27 27 26 25 25 24 23 23 23 22 22 22 22 23 22 22 22 22 23 23 23 23 24 24 25 25 24 24 25 26 26 26 26 28 28 27 26 26 26 25 23 22 22 21 21 21 21 21 22 23 23 24
40 40 39 39 39 39 39 39 38 38 38 38 39 40 40 41 41 41 41 41 41 40 40 40 39 38 38 36 36 35 33 32 31 30 30 29 29 28 28 27 27 26 25 25 24 24 24 24 24 24 24 24 23 24 24 24 25 26 26 25 26 26 25 25 26 27 28 28 29 30 30 28 27 26 25 24 22 22 22 22 22 22 22 23 23 24 25 26
40 40 40 40 40 40 40 39 39 39 39 39 40 41 41 41 42 41 41 41 41 41 41 40 40 39 39 37 37 36 34 33 32 32 31 30 30 30 29 29 28 28 27 26 26 26 25 25 26 25 26 26 25 25 25 26 26 27 28 27 27 27 26 27 27 28 29 30 31 32 31 28 27 26 25 24 23 22 22 22 22 23 24 25 25 26 26 27
41 41 41 41 41 41 41 40 40 40 40 40 41 42 42 43 42 42 42 42 41 41 41 41 40 40 39 38 37 36 35 34 33 33 32 32 32 31 30 30 30 29 29 28 28 28 28 27 27 27 27 27 27 27 26 27 27 29 30 30 29 28 27 28 28 29 29 30 31 32 32 29 27 27 25 24 24 23 22 22 23 24 26 26 27 28 28 28
43 42 42 41 42 42 42 42 41 41 41 42 42 43 43 43 43 43 43 43 42 42 42 42 41 41 40 39 38 37 36 35 34 34 34 34 33 33 32 32 32 31 31 30 30 30 30 29 29 29 29 29 29 28 28 28 29 30 31 31 30 29 30 30 30 31 31 32 31 31 31 29 28 28 26 25 24 24 23 23 24 26 27 28 28 29 29 30
44 44 43 43 42 42 42 43 42 42 43 43 43 44 44 44 44 44 44 44 43 43 43 43 42 42 41 40 38 37 36 36 36 37 37 36 35 34 34 34 34 33 33 33 32 32 31 31 31 30 30 30 30 30 30 30 31 32 32 31 30 31 32 32 32 33 33 33 32 31 30 28 29 29 27 26 26 25 25 25 25 27 29 29 30 30 31 31
46 45 45 44 44 43 44 43 43 43 44 44 44 44 45 45 45 45 45 45 45 44 44 44 43 42 42 40 38 37 37 38 39 39 39 38 37 36 36 36 36 35 35 35 34 34 34 33 32 32 31 31 31 32 32 32 33 34 34 33 32 32 33 33 33 34 35 34 32 31 29 27 28 29 28 28 28 27 27 27 26 27 30 31 32 32 32 32
48 47 47 46 46 45 45 45 44 44 45 45 45 45 46 46 46 46 46 46 46 45 45 44 44 44 43 41 40 39 39 40 40 40 40 40 40 39 38 38 38 37 37 37 36 36 35 34 33 32 32 32 33 33 33 33 34 34 35 35 35 34 33 33 34 36 36 35 32 31 29 27 27 28 29 29 28 28 28 29 28 29 31 32 33 34 34 33
49 49 48 48 47 47 46 46 46 45 46 46 46 46 47 47 47 47 47 47 46 46 46 46 45 45 44 43 43 42 40 40 41 42 42 42 41 41 40 40 39 39 39 38 38 37 36 35 34 33 33 35 35 35 35 34 34 35 37 37 37 36 34 33 35 36 36 36 34 31 30 28 26 27 28 30 28 27 29 30 30 31 32 34 34 35 34 34
51 50 50 49 48 48 48 47 47 47 47 47 47 47 47 48 48 48 48 48 48 48 48 48 47 46 46 45 44 44 43 42 42 43 43 43 42 42 43 42 41 41 40 40 39 38 37 36 35 34 36 37 37 37 36 34 34 36 38 38 37 37 35 34 35 36 36 37 35 33 32 29 27 27 28 29 29 28 29 31 32 33 34 35 36 36 36 35
53 52 51 51 50 49 49 48 48 48 48 47 47 48 48 48 49 49 49 49 49 49 49 49 49 48 47 47 46 46 45 44 43 44 44 44 44 45 45 44 43 42 42 41 41 39 38 37 36 36 38 38 38 38 36 36 36 36 37 38 38 37 36 34 34 35 37 37 35 34 33 30 28 27 28 29 30 30 31 32 33 35 36 37 38 37 36 35
55 54 53 53 52 52 51 50 49 49 48 48 48 48 49 49 49 49 50 50 50 49 49 50 50 49 48 49 48 47 47 46 46 46 46 46 46 46 46 45 44 43 43 43 42 41 39 38 37 38 39 39 38 37 37 38 39 38 38 38 38 36 35 34 34 36 36 36 35 34 34 32 30 29 29 29 30 31 32 33 34 36 37 37 38 37 36 34
55 56 56 55 54 53 53 52 51 50 50 49 49 49 49 50 49 50 50 51 52 50 49 49 50 51 50 49 49 49 49 48 48 47 47 47 47 47 46 45 45 44 44 43 43 42 41 40 40 41 40 39 38 37 37 38 40 40 40 39 38 35 34 34 35 36 36 36 35 36 37 34 32 31 29 30 31 33 34 34 35 36 36 37 37 36 34 32
56 56 56 57 57 56 55 54 52 52 52 51 51 51 51 51 50 50 51 53 54 51 49 50 50 51 50 50 50 50 50 49 48 48 47 46 47 47 46 46 46 45 44 45 45 45 43 42 42 42 40 39 38 38 39 39 40 40 40 38 36 35 35 35 36 37 37 37 36 38 40 37 34 33 31 31 34 35 36 35 36 37 37 36 35 34 32 31
58 57 56 57 57 57 58 56 54 54 53 52 53 53 53 53 52 53 53 55 56 52 50 50 50 51 51 51 50 49 51 50 48 48 48 47 48 47 47 46 46 45 45 45 46 46 45 43 42 41 42 41 40 41 41 40 40 40 39 37 36 36 36 36 37 38 39 40 39 40 42 41 37 35 34 35 37 38 37 36 37 38 37 35 34 32 30 30
60 58 58 58 57 57 57 57 56 56 55 54 55 54 54 54 54 55 54 57 59 55 51 51 51 52 51 51 50 50 52 51 49 49 49 49 49 48 48 48 47 46 46 46 48 48 47 45 43 42 43 44 43 42 41 39 39 40 38 36 35 36 37 38 38 39 40 41 42 43 43 44 41 37 37 38 39 39 38 37 37 38 37 35 33 31 29 29
62 61 60 59 58 58 57 57 56 56 56 56 56 56 57 57 57 56 55 58 61 58 55 54 54 54 54 54 53 53 54 53 51 51 50 50 49 48 48 47 47 46 46 47 48 48 47 47 46 44 42 42 41 41 39 37 37 37 37 36 36 37 39 40 40 41 42 43 45 44 42 45 45 42 42 41 38 37 36 36 37 36 36 35 33 31 30 29
64 63 61 60 60 59 59 59 57 56 56 56 56 57 57 58 58 58 58 61 63 60 59 58 56 56 56 56 56 56 56 55 54 54 51 51 50 49 48 46 46 47 47 48 48 48 48 49 48 45 43 41 39 37 36 36 36 36 37 37 38 40 40 41 42 42 44 45 45 43 42 45 46 44 45 43 38 36 34 34 36 35 35 34 33 32 30 29
65 64 63 63 62 61 60 59 57 57 58 58 58 57 57 58 58 58 61 63 63 62 62 62 60 59 58 58 58 58 58 57 56 56 55 55 54 52 51 50 50 50 50 50 50 50 50 49 49 47 44 41 39 38 36 36 37 37 38 39 40 41 41 43 44 44 46 46 43 42 43 46 48 44 44 45 41 38 34 33 34 35 34 33 32 31 30 28
64 65 66 65 64 63 62 60 59 59 59 59 60 59 59 60 59 60 62 60 59 60 62 64 62 60 59 59 59 59 59 58 57 57 57 56 55 54 53 52 51 50 51 52 51 50 48 48 49 48 46 43 41 39 37 37 38 38 39 40 41 43 44 46 46 46 48 46 44 44 45 48 48 46 46 47 45 41 37 35 35 34 33 32 31 31 29 28
59 62 65 65 65 66 64 63 63 63 63 62 62 62 62 63 64 65 63 59 59 60 61 63 61 59 59 58 58 58 58 58 57 56 55 54 54 52 51 49 47 47 48 48 47 46 45 45 46 47 46 44 41 39 38 39 39 39 41 43 43 45 47 48 48 48 48 47 46 47 49 51 49 47 48 47 45 43 40 37 35 32 31 31 30 30 29 28
54 57 60 63 64 65 65 67 68 68 67 66 66 66 66 67 68 67 63 61 62 63 62 62 61 59 59 58 56 56 55 55 55 54 53 52 52 50 49 47 46 46 46 44 44 44 44 43 44 44 43 41 40 40 40 41 42 43 44 45 45 47 49 50 49 49 49 49 49 51 53 53 50 48 48 46 43 42 39 37 34 30 29 28 29 30 29 29
51 51 53 56 58 60 63 67 70 72 73 72 71 70 71 72 69 66 64 64 65 66 65 64 64 62 61 60 58 57 56 55 54 54 53 53 52 51 49 48 46 46 45 44 46 46 46 45 43 42 42 42 42 42 43 44 45 47 46 47 48 49 48 49 50 51 52 53 53 54 56 55 52 50 50 47 43 40 37 35 33 31 29 28 29 29 29 29
49 49 47 48 50 54 57 60 64 69 74 76 77 76 75 73 67 63 65 66 67 67 66 66 66 64 63 63 61 59 58 56 55 55 54 54 53 51 49 47 47 46 46 47 48 48 48 47 45 44 44 44 45 46 46 46 47 48 48 50 50 48 46 49 51 53 54 55 57 58 58 56 53 52 50 47 42 38 35 31 30 31 29 28 27 27 29 29
46 47 45 41 40 42 46 48 51 57 64 71 77 81 79 73 67 65 67 67 67 66 65 66 66 65 64 64 63 61 60 58 57 56 55 54 53 52 50 49 48 49 48 48 48 48 48 48 48 48 47 47 48 48 48 48 49 50 51 51 49 48 49 51 53 55 56 58 60 60 59 57 54 52 49 46 40 36 32 29 28 29 28 26 26 26 27 28
43 43 43 39 36 37 39 38 40 46 52 59 66 70 70 68 66 68 70 69 68 66 65 66 67 66 66 65 65 64 63 61 60 59 58 57 57 55 53 53 52 52 51 50 50 49 50 51 51 51 50 50 50 50 50 50 51 53 53 52 51 52 54 54 55 57 58 60 61 61 59 56 54 51 46 41 37 33 30 27 25 24 24 25 25 26 27 28
45 45 45 40 35 37 38 39 40 43 49 55 58 55 54 57 59 62 67 70 71 69 68 68 68 68 68 68 67 66 66 65 63 62 60 59 59 56 55 54 54 54 53 52 52 52 53 54 54 53 53 53 53 53 54 54 54 54 54 54 55 55 56 55 56 57 58 60 61 60 57 53 51 48 41 36 32 30 29 26 23 22 23 25 25 26 27 28
52 51 48 40 36 37 38 40 42 46 50 56 56 48 44 49 51 53 58 63 67 70 70 69 69 70 70 69 69 69 69 68 66 65 63 62 61 59 57 56 55 54 54 53 53 52 53 54 55 56 55 55 56 56 55 54 54 54 55 56 57 57 57 56 56 57 57 58 59 58 55 50 45 41 36 33 31 29 28 26 24 24 24 24 26 27 28 29
58 57 50 41 40 41 40 42 46 51 53 53 51 44 40 44 48 47 48 50 55 61 64 65 68 70 71 70 70 70 70 69 68 67 65 64 62 60 59 57 56 55 54 54 54 53 54 55 56 56 56 58 58 56 54 53 54 56 58 59 58 57 56 56 56 55 55 55 55 54 52 46 41 37 34 33 31 30 28 27 26 26 25 26 27 28 29 30
58 59 54 47 46 45 44 46 51 55 56 52 49 45 41 42 44 46 47 47 49 51 53 57 62 66 67 68 68 68 68 69 68 66 65 62 60 59 59 57 56 56 56 56 56 55 56 56 57 57 58 59 59 56 56 57 58 59 59 59 58 56 55 55 55 54 53 52 50 50 49 43 38 37 35 33 32 31 31 31 29 27 27 29 30 31 31 32
59 60 57 52 50 50 51 52 52 55 56 53 49 46 44 43 41 43 46 48 48 47 47 50 54 58 62 65 66 66 67 67 66 65 63 61 60 59 59 59 58 58 58 58 58 56 56 56 57 58 59 59 59 59 59 60 60 60 59 59 57 54 54 53 53 50 49 49 48 48 48 41 37 37 36 34 34 34 35 35 33 31 30 32 33 33 33 34
63 61 60 57 52 52 57 58 57 56 54 51 50 49 48 47 47 47 47 46 47 47 46 47 48 51 55 58 60 63 65 65 65 64 62 61 61 60 60 59 57 55 56 56 57 57 56 55 56 57 57 57 58 59 59 60 60 58 56 53 50 48 48 47 47 46 47 48 47 47 47 43 39 38 35 35 36 36 36 36 36 35 35 35 35 35 35 36
65 61 61 61 57 55 59 62 64 61 54 51 52 52 51 50 52 52 50 50 50 48 46 46 46 47 49 50 53 56 58 60 61 61 61 60 60 59 58 55 51 49 49 50 50 51 51 51 51 51 53 55 57 57 56 54 52 50 48 46 45 43 41 42 43 42 46 48 45 45 48 44 40 39 37 37 37 37 37 37 37 37 38 38 39 39 39 39
68 65 63 62 62 61 60 61 63 62 58 55 54 54 54 54 53 53 52 52 52 49 47 46 46 46 47 47 48 49 51 53 54 57 59 59 58 57 55 52 49 46 44 43 43 43 43 44 43 45 48 51 52 50 47 44 44 45 45 45 44 41 39 40 40 41 46 49 45 45 47 42 39 40 40 40 40 39 39 39 39 39 40 41 42 43 43 43
71 69 66 64 65 65 63 61 61 62 61 61 59 56 56 55 54 55 55 53 50 47 47 47 47 48 49 49 49 49 49 49 49 51 54 55 56 55 53 51 47 44 42 41 40 39 40 41 42 43 46 47 46 44 43 43 45 45 45 44 43 41 39 39 41 45 48 48 46 46 44 41 41 42 42 43 44 43 42 42 42 42 43 44 45 45 46 46
74 72 69 67 66 68 68 65 65 64 62 63 63 61 60 57 56 58 58 54 50 47 47 49 49 49 51 51 51 50 50 49 48 47 49 52 53 53 53 50 48 45 44 43 42 42 43 44 44 45 45 44 42 43 45 47 47 46 45 44 44 43 42 42 46 48 45 45 48 46 42 43 45 44 45 46 46 46 47 47 47 47 47 47 48 48 48 48
76 73 70 69 68 70 70 68 67 66 64 65 65 63 61 60 60 60 59 56 54 52 52 52 51 50 51 51 51 51 49 49 49 47 47 49 49 48 48 46 46 45 45 45 45 45 45 44 44 44 46 44 43 45 46 47 48 47 46 46 45 45 46 48 50 48 44 47 51 49 48 50 49 47 48 49 49 50 51 51 51 51 50 50 50 49 49 48
76 74 72 71 71 70 69 67 67 67 67 68 68 66 63 62 61 61 59 58 58 57 57 55 51 52 54 52 51 52 50 49 49 47 46 46 45 45 45 45 45 45 44 44 45 45 44 43 42 44 46 46 47 48 48 48 49 48 48 48 47 49 50 51 52 49 48 51 52 51 52 53 52 51 51 51 51 53 54 54 54 52 51 50 49 49 49 49
76 76 74 73 72 71 70 69 70 69 68 70 71 69 67 65 64 62 61 61 59 58 59 56 48 50 54 51 50 51 50 47 46 45 45 46 45 44 45 45 44 43 43 43 44 45 46 45 45 46 48 48 49 50 50 50 51 51 51 51 53 54 55 55 55 52 52 54 53 53 54 55 54 54 52 52 54 54 55 55 53 51 51 50 50 51 51 52
75 76 76 74 73 72 72 73 73 72 71 72 72 70 69 68 66 65 64 64 62 59 60 56 48 47 50 50 49 49 46 45 47 47 48 48 46 44 44 45 44 42 42 43 45 47 47 47 47 48 50 51 50 49 50 51 52 54 55 56 58 59 58 56 55 54 54 55 54 55 57 56 54 53 53 54 55 54 55 54 52 51 51 51 53 53 53 53
73 75 75 75 74 73 73 73 75 76 75 74 72 72 72 69 66 66 66 65 62 61 61 60 56 54 53 52 50 46 43 45 47 47 48 49 49 47 45 45 45 43 43 45 47 49 49 50 50 50 51 53 52 51 51 49 51 56 58 56 57 58 57 57 57 56 55 54 54 56 56 53 51 53 54 54 53 53 53 52 52 52 51 52 54 54 53 53
Wind_Direction
220 218 216 217 219 221 224 226 226 226 225 224 221 218 215 212 209 205 202 199 195 192 190 188 187 185 183 180 179 179 179 178 180 180 181 183 184 187 190 195 197 201 207 215 225 233 245 252 262 275 287 298 307 311 310 307 302 300 302 304 298 297 301 302 301 309 314 312 312 312 315 316 312 313 316 315 316 324 309 292 292 287 290 295 293 292 295 301
221 219 218 219 222 225 227 229 228 228 226 224 221 217 214 211 208 205 202 198 195 193 192 190 189 187 186 184 183 184 184 185 187 187 189 192 194 198 202 208 212 219 225 233 239 244 252 260 269 279 287 297 308 313 313 310 306 304 304 299 293 296 299 298 300 307 312 312 312 312 315 315 312 313 315 315 319 326 294 281 287 290 295 297 295 295 297 300
222 221 221 222 224 227 229 230 229 229 227 224 220 217 213 211 208 205 202 199 196 195 193 192 191 190 189 189 189 189 190 192 194 195 197 200 202 207 212 217 223 230 237 243 248 250 255 262 271 279 285 296 307 311 314 314 309 305 301 293 292 297 295 298 303 308 313 313 313 314 315 315 313 313 314 315 315 307 288 287 292 293 296 296 295 297 299 301
223 223 223 224 227 229 231 231 230 229 227 224 219 215 213 210 208 205 202 200 197 196 195 195 194 193 193 193 194 194 195 197 199 202 204 207 211 215 219 224 230 237 244 248 251 253 256 263 270 276 283 295 303 307 312 314 312 307 299 292 294 300 299 302 307 311 314 315 314 314 315 314 312 312 311 310 306 298 295 293 291 292 294 293 293 295 297 300
224 224 225 226 228 230 231 231 231 229 226 223 218 215 212 210 208 205 202 201 199 198 197 197 197 197 197 198 199 199 201 203 204 207 211 213 217 221 226 231 236 241 246 250 253 256 259 264 268 273 282 293 298 302 309 312 313 310 298 293 296 301 301 304 308 312 314 315 314 313 312 311 309 310 307 305 300 295 293 288 285 287 291 291 291 292 294 297
226 226 227 227 229 230 230 230 230 229 226 222 217 214 212 210 208 205 203 202 201 200 199 200 200 200 200 202 203 203 206 209 209 212 215 218 222 226 231 235 240 245 250 253 256 258 261 264 268 272 279 287 292 298 305 310 313 309 298 294 297 300 301 303 308 311 312 314 313 310 309 307 307 305 303 301 297 294 292 288 284 283 284 286 287 288 289 291
228 228 228 229 229 230 229 229 229 228 225 221 217 214 212 210 208 206 204 203 203 202 202 202 203 203 204 205 207 207 210 212 214 216 219 222 226 230 234 238 243 248 253 256 259 261 262 263 267 273 278 282 288 295 301 306 309 306 300 297 297 298 301 303 307 310 311 312 310 307 305 305 304 301 301 299 294 293 293 290 288 286 283 282 283 283 285 286
228 229 229 229 229 230 229 227 227 227 225 221 218 215 212 210 208 207 205 205 205 204 205 205 206 206 207 209 210 212 213 216 218 220 222 225 229 233 236 240 245 249 254 258 262 263 264 265 269 273 277 281 286 293 298 302 304 303 302 300 297 296 299 302 306 309 310 309 307 304 302 303 301 298 299 296 292 293 293 292 291 289 286 285 284 283 284 284
228 228 229 228 228 228 228 227 226 225 224 221 218 215 213 211 209 208 207 206 207 207 207 208 209 210 210 212 213 216 217 219 221 224 226 228 231 235 239 242 247 251 255 259 262 264 266 267 269 272 276 280 285 290 295 298 301 302 302 301 298 296 297 301 306 308 308 307 305 302 301 302 299 297 298 294 292 294 294 293 291 289 289 288 288 287 287 286
226 227 227 227 227 227 226 225 225 224 222 220 218 216 213 211 210 209 208 208 208 209 210 210 212 212 214 215 217 220 220 222 225 226 229 232 234 238 241 244 249 253 257 260 263 265 268 269 271 273 276 279 284 288 292 296 299 301 303 301 298 296 297 301 305 307 306 305 303 301 301 300 298 298 298 293 292 294 293 292 291 290 290 289 289 288 288 287
225 225 225 225 226 226 225 224 224 223 221 220 218 216 214 212 211 210 210 210 211 211 212 213 214 215 217 218 220 223 223 224 227 229 231 234 237 240 243 246 249 254 258 261 264 267 270 272 273 274 275 279 283 287 290 294 297 299 301 300 297 295 297 301 304 304 303 302 300 299 298 299 299 299 297 293 293 292 291 291 290 290 290 290 289 289 288 287
223 224 224 224 224 224 224 223 223 222 221 219 218 216 214 213 212 212 212 212 213 214 215 216 216 218 219 221 223 226 226 227 230 231 233 235 238 241 244 247 250 253 257 261 265 268 271 273 275 276 276 278 281 285 289 292 296 297 298 298 294 294 297 301 303 303 302 300 298 296 297 298 298 297 294 291 291 290 290 290 290 290 291 290 290 289 288 287
222 223 223 224 224 223 222 222 222 221 220 219 217 216 215 214 214 214 214 215 216 216 217 218 219 220 222 224 226 228 229 230 233 234 235 237 240 242 245 248 251 254 257 262 266 269 272 274 276 277 277 278 280 284 288 292 295 296 296 294 292 293 297 300 302 302 301 299 298 297 297 298 298 294 291 289 288 287 288 289 291 291 291 290 289 288 287 286
221 222 222 223 223 222 222 221 221 220 219 219 217 216 216 215 215 216 216 217 218 219 220 221 222 223 224 226 229 230 232 233 235 236 237 239 241 244 246 249 252 255 258 262 266 270 273 275 277 277 278 278 279 282 287 291 294 294 294 292 290 293 297 300 300 299 298 298 299 298 298 298 296 292 289 289 288 287 287 288 290 290 290 290 289 288 287 286
221 222 222 222 221 221 221 221 221 220 220 219 218 217 217 217 217 218 218 219 220 221 223 224 225 226 227 229 231 232 234 235 237 238 239 241 243 246 248 250 253 256 259 263 267 271 273 275 276 277 278 278 280 283 287 290 292 291 290 290 291 294 296 297 297 296 295 295 296 296 296 296 293 289 288 289 289 288 287 287 287 288 288 289 289 288 287 287
221 222 222 222 222 221 221 221 221 221 220 220 220 219 219 219 219 220 220 221 222 223 225 226 227 228 230 232 233 234 236 238 239 240 241 243 245 247 249 252 255 257 260 263 266 270 273 275 276 277 278 279 281 285 287 289 288 287 288 290 293 295 296 296 294 294 293 293 293 292 293 294 291 288 288 288 287 285 284 285 286 287 287 287 287 288 288 288
222 222 222 223 223 222 222 222 221 221 221 221 221 221 221 221 221 222 223 223 224 225 226 228 229 230 232 233 235 237 239 240 241 242 243 244 246 249 251 253 255 258 261 264 267 270 272 274 275 277 278 280 282 285 287 287 286 286 289 290 292 294 295 295 294 293 292 291 291 291 291 291 288 288 289 289 287 285 285 287 289 289 289 289 289 289 289 288
224 223 223 223 223 223 223 223 223 223 223 223 223 223 223 223 224 224 225 226 226 227 229 230 231 232 233 235 236 238 239 241 242 243 245 246 248 250 252 254 256 259 262 265 267 270 272 274 275 277 279 280 281 283 285 285 286 288 290 290 291 292 293 293 292 291 291 290 290 290 289 286 285 287 288 287 287 287 288 289 289 288 289 291 292 292 290 287
226 225 225 224 224 224 224 224 224 224 225 225 225 225 225 225 226 227 227 228 229 230 231 232 233 234 234 236 237 238 240 242 243 245 247 248 250 252 254 256 258 260 263 265 267 269 271 273 275 277 278 279 280 282 283 284 286 288 289 290 292 292 292 290 290 290 290 290 289 287 285 282 282 284 285 285 286 287 288 287 288 287 287 290 292 293 291 287
227 227 227 226 226 226 226 226 226 226 226 226 226 227 228 228 228 229 229 230 231 232 233 234 234 235 236 237 238 240 241 243 245 247 248 250 252 254 256 257 259 261 262 264 266 269 271 272 274 276 277 278 279 281 282 283 285 287 288 290 292 293 291 289 289 291 291 290 289 287 284 281 281 281 282 283 284 285 286 286 287 287 288 289 292 294 293 288
228 228 228 228 228 228 228 228 228 228 228 228 229 229 230 230 230 231 231 232 232 234 235 235 235 236 237 238 240 241 242 243 245 248 250 251 253 254 256 257 259 261 263 265 267 268 270 272 274 276 276 277 279 280 281 283 284 285 288 289 291 291 289 287 289 290 289 288 288 286 283 281 280 280 281 283 284 285 285 286 288 288 288 289 291 293 293 290
229 229 229 229 229 229 230 230 230 230 230 231 231 232 232 232 233 233 233 234 234 235 236 236 237 237 239 240 241 242 244 244 246 248 250 252 254 255 256 258 260 263 264 265 267 268 269 272 273 275 276 277 278 279 281 282 283 284 286 288 288 287 286 287 287 287 287 286 286 284 282 280 279 281 282 284 286 288 287 288 289 289 290 290 290 291 291 290
231 231 230 230 230 230 230 231 232 232 233 233 234 235 235 235 235 235 236 236 235 236 237 238 239 239 239 241 242 244 245 246 247 248 250 252 254 256 258 260 262 264 265 266 267 268 270 271 272 273 275 276 277 279 281 282 284 284 284 285 285 285 285 285 284 283 284 283 283 283 280 279 280 282 284 286 287 289 290 290 291 291 291 292 291 290 290 288
233 233 232 232 232 232 232 232 232 233 234 234 236 237 237 237 238 238 239 239 237 237 238 239 240 240 241 242 244 245 246 247 248 249 250 252 255 257 259 261 262 264 266 268 269 269 270 272 272 273 274 275 277 279 280 281 283 284 284 284 283 283 282 282 282 282 282 282 283 283 280 279 280 283 285 287 289 290 291 293 294 294 293 293 291 290 289 287
233 234 234 234 233 233 233 233 233 234 235 235 237 238 238 238 239 240 241 242 240 237 239 241 242 242 243 244 245 247 248 248 250 252 253 254 256 258 259 260 262 265 267 268 269 269 270 271 273 274 274 275 276 278 279 280 281 282 283 283 282 281 281 281 281 282 282 283 284 284 283 281 282 283 286 289 289 289 290 293 296 296 295 294 292 290 289 287
233 233 234 234 234 234 234 234 235 235 235 237 238 239 239 240 240 241 241 243 241 239 239 241 243 244 244 246 247 248 250 250 251 253 254 255 257 258 260 261 263 264 266 267 267 268 269 270 272 274 275 275 277 278 279 279 279 279 279 279 278 279 279 280 280 282 283 284 285 285 285 285 284 285 290 291 290 289 291 294 295 296 297 295 292 290 288 285
234 234 234 235 235 235 235 235 236 237 237 238 239 239 240 240 241 242 243 245 243 239 240 241 242 244 245 247 248 249 250 250 251 253 254 256 257 259 260 261 262 263 265 266 267 268 269 270 270 271 273 276 278 278 277 276 275 276 275 274 274 276 277 278 279 281 282 284 284 284 287 289 286 288 292 291 290 293 294 293 292 293 296 295 292 289 285 282
234 234 235 235 235 236 236 236 237 238 238 239 240 240 241 241 242 242 244 245 242 239 239 240 241 243 245 246 247 249 250 251 252 253 254 256 257 258 260 261 262 263 264 265 267 269 270 270 271 271 273 275 277 276 274 272 271 271 271 271 273 274 276 278 279 280 282 282 282 284 291 293 290 291 293 292 293 296 295 293 290 291 293 293 291 288 284 281
235 235 235 236 236 236 236 236 237 238 238 239 240 240 241 242 242 243 244 245 243 241 241 240 240 241 243 245 247 249 250 252 253 254 255 256 257 259 260 261 262 263 264 265 267 269 269 271 272 273 273 274 273 272 270 269 268 268 270 272 273 275 276 278 279 280 282 281 283 288 294 294 291 291 293 296 297 295 294 294 291 290 291 291 289 286 283 279
236 236 236 236 237 237 237 237 237 237 238 239 239 239 240 241 242 242 243 244 244 245 245 244 243 242 243 245 247 249 251 252 254 256 256 257 258 259 260 261 262 263 264 265 267 268 269 271 272 272 272 271 269 266 265 266 267 269 272 273 275 276 277 277 277 279 280 282 287 292 294 294 292 289 292 297 298 295 296 297 291 288 290 290 287 285 281 277
239 238 237 237 237 238 238 238 238 238 238 238 239 239 239 240 240 240 243 246 247 247 248 248 246 245 245 246 248 250 251 252 253 255 256 257 258 259 260 261 262 264 265 266 267 268 268 269 269 269 268 266 265 264 264 267 269 272 273 273 274 274 274 275 276 278 280 285 290 293 293 292 290 289 293 297 298 297 297 297 292 289 290 288 284 281 279 274
240 240 241 240 239 239 239 238 239 239 239 239 239 239 239 239 239 240 243 246 246 247 247 249 249 247 247 246 246 248 249 251 252 253 255 256 258 259 261 262 263 264 265 267 268 268 268 267 266 266 266 265 266 266 267 268 269 269 269 270 271 272 274 275 277 279 282 285 288 290 290 290 289 292 295 297 297 295 295 296 294 291 288 284 279 277 275 270
236 238 240 241 241 241 240 240 240 240 240 240 240 240 239 239 240 241 244 244 245 247 248 249 250 250 249 248 247 247 249 250 252 254 255 256 258 259 260 262 263 264 266 268 269 269 268 267 265 265 265 265 266 266 266 267 267 266 267 269 271 272 274 276 279 282 283 284 286 288 289 290 291 294 296 295 293 292 294 295 293 288 283 277 273 272 270 267
232 235 238 239 240 241 240 241 242 242 242 241 241 241 240 241 242 244 245 246 246 248 249 250 251 251 252 252 251 250 250 251 252 253 255 255 257 258 259 261 263 265 266 267 267 267 267 267 267 266 264 264 264 264 265 265 266 267 268 270 271 272 275 278 280 281 281 283 285 287 288 290 293 294 294 293 290 291 293 291 287 283 278 272 269 268 266 265
224 228 230 232 236 238 238 239 242 243 243 242 242 241 240 243 246 247 247 247 247 247 249 250 251 251 252 253 253 253 252 252 253 254 255 256 257 258 259 260 262 262 262 263 264 265 266 266 266 265 264 262 262 262 263 264 266 267 269 270 271 274 276 277 277 278 281 283 283 285 287 289 292 291 290 290 291 292 291 285 281 278 275 272 270 267 265 264
222 222 224 227 232 233 232 234 238 241 243 243 242 242 243 246 248 249 249 249 248 249 250 252 253 254 255 256 256 257 256 256 255 256 256 257 257 258 259 259 260 260 261 262 263 263 264 264 263 262 262 261 261 262 263 264 266 267 268 270 273 274 274 275 276 277 279 280 281 284 286 288 288 287 288 290 292 290 285 280 277 276 275 275 271 266 264 263
224 221 222 226 230 231 230 231 235 240 242 243 243 244 246 248 248 248 249 249 249 249 250 252 253 254 255 257 258 258 259 258 258 257 257 257 257 256 258 259 260 261 261 262 263 262 262 262 260 260 260 261 261 262 263 263 265 266 268 270 272 272 273 274 275 276 278 279 280 282 283 284 284 285 287 289 289 286 283 281 279 277 275 273 268 266 264 263
228 225 222 223 226 229 233 236 238 243 245 245 245 245 246 246 245 246 246 246 247 248 248 249 252 253 255 256 257 258 259 259 259 259 258 258 258 257 257 258 259 260 261 262 262 261 260 260 260 260 260 260 261 262 262 263 265 267 269 271 271 271 272 273 274 275 276 278 279 280 281 281 282 285 286 286 284 282 281 281 281 277 272 269 267 266 265 264
235 232 223 220 227 231 235 239 241 244 243 243 246 247 246 245 243 243 244 245 246 247 247 248 250 252 254 255 257 258 259 259 260 260 260 260 260 259 258 257 257 258 260 261 261 261 261 260 259 258 259 261 261 261 263 265 268 270 270 270 269 270 270 271 272 273 275 276 278 279 280 280 282 283 281 279 277 276 276 280 280 276 270 267 266 266 266 265
240 237 224 219 230 232 234 239 241 243 242 242 247 249 248 245 241 242 244 244 246 247 247 248 249 250 252 254 255 256 258 258 259 259 260 260 260 259 257 257 255 256 259 261 261 261 260 259 259 258 258 260 261 263 266 268 268 268 268 268 268 268 269 270 271 272 273 275 277 279 279 278 280 278 274 273 273 273 274 276 277 274 270 266 265 266 267 267
241 240 229 225 231 229 232 237 237 239 242 243 246 247 246 244 240 240 242 242 243 244 245 246 247 248 250 251 253 254 255 257 257 258 258 258 258 258 257 257 257 257 259 261 261 261 261 261 260 259 258 259 261 264 265 265 265 266 267 267 267 267 267 268 270 273 275 276 278 279 276 274 275 276 275 275 275 275 275 274 273 271 267 265 265 267 268 268
239 238 233 231 231 228 232 239 240 239 240 241 243 244 245 246 243 241 242 242 243 243 244 245 246 247 247 248 249 251 253 254 255 256 257 257 258 258 258 258 258 258 257 257 258 259 261 261 260 258 257 259 261 263 264 265 266 266 265 265 266 267 268 269 272 275 275 275 274 274 272 272 273 274 275 277 277 277 277 276 275 271 265 262 263 265 268 269
237 238 236 235 233 228 230 236 241 242 241 240 242 243 243 244 244 242 242 242 243 244 244 245 246 247 247 247 247 248 250 252 253 254 255 256 256 257 258 258 259 258 256 254 254 254 257 258 259 259 259 260 261 262 263 263 264 264 266 267 269 270 270 269 270 271 269 269 269 269 270 271 272 273 275 276 276 276 277 278 277 274 270 267 266 268 270 269
238 237 236 236 234 230 229 232 236 239 240 241 242 243 243 242 243 245 244 242 241 242 243 244 245 247 248 248 248 247 248 249 251 252 253 254 255 256 256 257 256 255 253 253 253 253 255 256 256 257 257 258 259 260 261 262 264 265 267 268 269 268 266 265 266 266 266 267 264 263 268 272 274 275 274 273 273 275 276 276 277 276 275 273 273 274 274 272
237 236 234 235 234 231 229 232 235 236 237 240 242 243 244 243 244 246 247 244 239 239 241 243 244 247 248 249 249 248 248 248 250 251 252 253 253 253 254 254 253 252 251 250 252 253 255 255 252 251 251 253 257 260 262 263 264 264 264 266 267 265 263 262 262 261 263 263 260 262 270 274 274 274 274 273 274 275 275 276 277 277 277 277 277 278 278 279
237 236 234 233 234 234 232 231 234 236 235 237 240 242 243 243 243 245 247 244 239 239 241 241 243 246 246 247 248 249 248 248 248 250 251 251 251 251 251 252 252 250 248 249 251 253 256 254 249 248 249 252 257 260 261 260 260 260 262 263 264 262 260 259 258 260 262 262 263 266 270 272 271 271 272 273 274 276 278 279 279 279 279 279 279 279 280 280
238 237 236 234 233 235 234 231 232 234 234 235 237 240 242 243 243 245 247 245 241 241 242 242 242 245 246 246 248 249 250 249 248 250 251 251 251 251 252 252 252 251 248 249 250 251 253 251 249 249 251 252 255 257 258 259 259 259 259 259 259 259 258 257 259 263 262 261 264 268 267 266 267 268 270 272 274 277 280 280 280 280 279 279 279 279 279 279
238 238 237 236 234 234 236 235 234 234 234 233 233 236 240 241 242 244 246 246 245 243 243 242 242 244 246 247 247 247 247 248 248 249 250 251 251 252 254 256 257 256 254 253 252 252 251 251 252 253 253 253 253 254 255 258 259 259 258 258 258 258 258 258 261 263 260 259 264 266 264 265 267 269 272 274 276 278 279 280 280 280 279 279 279 279 279 279
237 237 236 236 235 234 235 237 237 236 234 233 233 234 237 239 240 243 244 245 246 246 246 246 245 244 245 246 247 245 243 245 248 249 252 254 254 256 258 259 260 260 259 258 257 255 254 253 253 255 255 255 254 254 255 257 258 259 258 258 257 257 257 257 258 258 258 259 262 264 265 267 270 271 273 275 276 276 277 278 279 279 279 279 279 279 279 279
237 237 237 237 236 235 234 234 235 236 235 234 233 233 236 238 239 241 242 243 245 247 249 249 249 247 244 244 246 246 247 249 250 251 252 253 254 256 257 258 259 259 258 258 257 256 254 253 253 254 255 254 255 256 256 256 256 256 256 257 257 256 255 255 256 257 259 261 264 266 267 268 269 271 274 275 276 275 275 276 277 276 276 276 277 277 278 279
236 237 237 237 236 235 234 233 234 235 235 235 234 233 235 237 239 241 243 244 244 246 248 248 249 249 246 245 247 248 251 253 252 250 251 251 251 254 255 255 253 253 253 253 253 253 252 252 252 252 252 252 254 254 255 255 254 254 255 257 257 256 257 259 260 262 264 266 267 269 269 270 272 274 273 273 273 273 274 274 274 274 274 275 276 277 279 280
235 235 236 238 238 236 234 234 234 234 235 235 235 234 234 235 237 240 243 243 243 245 247 246 246 247 247 246 246 248 251 253 251 249 250 251 251 251 250 247 245 246 250 252 253 253 253 252 251 251 252 253 252 252 253 253 252 255 260 260 258 259 261 263 263 265 267 268 270 271 272 273 274 273 271 271 271 272 273 273 273 273 274 275 277 279 281 281
Height
5826 5828 5830 5832 5833 5835 5836 5838 5840 5841 5843 5844 5846 5848 5849 5851 5852 5854 5855 5857 5859 5860 5862 5863 5865 5866 5868 5869 5871 5872 5873 5874 5875 5876 5877 5878 5879 5880 5881 5882 5883 5883 5884 5885 5885 5886 5886 5887 5887 5888 5888 5888 5889 5889 5889 5889 5888 5888 5888 5889 5888 5888 5888 5888 5888 5888 5888 5888 5887 5887 5887 5887 5886 5885 5885 5885 5885 5885 5884 5883 5883 5883 5882 5882 5882 5882 5882 5882
5824 5826 5828 5829 5831 5833 5834 5836 5837 5839 5840 5842 5844 5846 5847 5849 5850 5852 5854 5855 5857 5859 5861 5862 5864 5865 5867 5868 5870 5871 5872 5873 5874 5875 5876 5877 5878 5879 5880 5881 5882 5882 5883 5884 5884 5885 5886 5886 5886 5887 5887 5888 5888 5888 5888 5887 5887 5887 5887 5887 5887 5887 5887 5887 5887 5887 5887 5887 5886 5886 5886 5886 5885 5884 5884 5884 5884 5884 5883 5882 5881 5881 5881 5881 5881 5880 5880 5880
5821 5823 5825 5827 5829 5830 5832 5833 5835 5837 5838 5840 5842 5843 5845 5847 5848 5850 5852 5854 5855 5857 5859 5861 5862 5864 5865 5867 5868 5869 5871 5872 5873 5874 5875 5876 5877 5878 5879 5880 5881 5881 5882 5883 5883 5884 5884 5885 5885 5886 5886 5886 5887 5886 5886 5886 5886 5886 5886 5886 5886 5886 5886 5885 5885 5886 5886 5886 5885 5884 5884 5884 5883 5883 5882 5883 5883 5883 5882 5881 5880 5879 5880 5880 5879 5879 5878 5878
5819 5821 5822 5824 5826 5828 5829 5831 5833 5834 5836 5837 5839 5841 5843 5845 5846 5848 5850 5852 5853 5855 5857 5859 5861 5862 5864 5865 5866 5868 5869 5870 5871 5873 5874 5875 5876 5877 5878 5878 5879 5880 5881 5882 5882 5883 5883 5884 5884 5884 5885 5885 5885 5885 5885 5885 5885 5885 5885 5884 5884 5885 5884 5884 5884 5884 5884 5884 5883 5882 5882 5882 5882 5882 5881 5881 5881 5881 5881 5881 5879 5878 5878 5878 5878 5877 5876 5876
5816 5818 5820 5822 5823 5825 5827 5829 5830 5832 5833 5835 5837 5839 5841 5842 5844 5846 5848 5850 5851 5853 5855 5857 5859 5860 5862 5863 5865 5866 5867 5868 5870 5871 5872 5873 5874 5875 5876 5877 5878 5879 5879 5880 5881 5881 5882 5882 5883 5883 5884 5884 5884 5884 5884 5884 5884 5884 5883 5883 5883 5883 5882 5882 5882 5882 5882 5882 5881 5881 5881 5881 5880 5880 5880 5880 5879 5879 5880 5880 5879 5877 5877 5876 5876 5876 5875 5874
5813 5815 5817 5819 5821 5823 5824 5826 5828 5829 5831 5833 5835 5836 5838 5840 5842 5844 5845 5847 5849 5851 5853 5855 5856 5858 5860 5861 5863 5864 5866 5867 5868 5869 5870 5872 5873 5874 5875 5875 5876 5877 5878 5878 5879 5879 5880 5880 5881 5881 5882 5882 5882 5882 5882 5883 5883 5882 5882 5881 5882 5882 5881 5881 5881 5880 5880 5880 5880 5879 5879 5879 5879 5879 5878 5878 5877 5877 5878 5878 5878 5877 5876 5875 5874 5874 5874 5873
5810 5812 5814 5816 5818 5820 5822 5823 5825 5827 5829 5830 5832 5834 5836 5838 5840 5841 5843 5845 5847 5849 5851 5853 5854 5856 5858 5859 5861 5863 5864 5865 5866 5867 5869 5870 5871 5872 5873 5874 5875 5875 5876 5877 5877 5878 5878 5879 5879 5879 5880 5881 5880 5880 5881 5881 5881 5881 5880 5880 5880 5880 5880 5879 5879 5879 5878 5878 5878 5877 5877 5877 5877 5877 5877 5876 5875 5875 5875 5875 5875 5875 5875 5874 5873 5873 5872 5872
5807 5809 5811 5813 5815 5817 5819 5821 5822 5824 5826 5828 5830 5832 5833 5835 5837 5839 5841 5843 5845 5847 5848 5850 5852 5854 5856 5857 5859 5861 5862 5863 5865 5866 5867 5868 5869 5870 5871 5872 5873 5873 5874 5875 5876 5876 5876 5877 5877 5878 5878 5879 5879 5879 5879 5879 5879 5879 5878 5878 5878 5878 5878 5877 5877 5877 5877 5876 5876 5875 5875 5876 5875 5874 5875 5874 5872 5872 5872 5872 5872 5872 5872 5871 5871 5870 5870 5870
5803 5805 5808 5810 5812 5814 5816 5818 5820 5822 5823 5825 5827 5829 5831 5833 5835 5836 5838 5840 5842 5844 5846 5848 5850 5852 5854 5855 5857 5858 5860 5861 5862 5863 5865 5866 5867 5868 5869 5870 5871 5871 5872 5873 5874 5874 5875 5875 5876 5876 5876 5877 5877 5877 5877 5877 5877 5877 5877 5876 5876 5876 5876 5876 5876 5875 5875 5874 5874 5873 5873 5874 5873 5872 5873 5871 5870 5870 5870 5870 5869 5869 5869 5869 5868 5868 5867 5867
5800 5802 5804 5806 5808 5810 5813 5814 5817 5819 5821 5823 5824 5826 5828 5830 5832 5834 5836 5838 5840 5842 5844 5846 5848 5849 5851 5853 5855 5856 5858 5859 5860 5861 5862 5863 5864 5865 5866 5868 5868 5869 5870 5871 5872 5872 5873 5873 5874 5874 5874 5875 5875 5875 5875 5875 5875 5874 5874 5874 5874 5873 5874 5874 5874 5873 5873 5872 5871 5871 5871 5871 5870 5870 5870 5869 5868 5868 5867 5867 5867 5866 5866 5866 5866 5865 5865 5865
5796 5798 5800 5803 5805 5807 5809 5811 5813 5815 5817 5820 5822 5824 5825 5827 5829 5831 5833 5835 5837 5839 5841 5843 5845 5847 5849 5851 5852 5853 5855 5857 5857 5859 5860 5861 5862 5863 5864 5865 5866 5867 5868 5868 5869 5870 5871 5871 5872 5872 5872 5873 5873 5872 5872 5872 5872 5872 5872 5872 5871 5871 5871 5872 5872 5871 5871 5870 5869 5869 5869 5869 5868 5868 5867 5866 5866 5865 5865 5865 5864 5864 5864 5864 5864 5863 5863 5862
5792 5794 5797 5799 5801 5803 5806 5808 5810 5812 5814 5816 5819 5821 5822 5824 5826 5828 5830 5833 5835 5837 5839 5840 5842 5844 5846 5848 5849 5850 5853 5854 5855 5856 5858 5859 5860 5861 5862 5863 5864 5865 5865 5866 5867 5868 5868 5869 5870 5870 5870 5871 5870 5870 5870 5870 5870 5870 5870 5870 5869 5869 5869 5869 5869 5868 5868 5868 5867 5866 5866 5866 5866 5865 5864 5863 5863 5863 5862 5862 5862 5862 5862 5861 5861 5861 5860 5860
5788 5791 5793 5795 5798 5800 5802 5804 5806 5809 5811 5813 5815 5817 5819 5822 5824 5826 5828 5830 5832 5834 5836 5838 5840 5842 5843 5845 5846 5848 5850 5852 5853 5854 5855 5856 5857 5858 5859 5860 5861 5862 5863 5864 5864 5865 5866 5866 5867 5867 5868 5868 5868 5868 5868 5868 5868 5867 5867 5867 5866 5866 5867 5867 5866 5865 5864 5864 5864 5863 5863 5864 5863 5862 5861 5861 5861 5860 5860 5860 5860 5859 5859 5859 5858 5858 5857 5857
5785 5787 5789 5792 5794 5796 5799 5801 5803 5805 5807 5809 5811 5814 5816 5818 5820 5823 5825 5827 5829 5831 5833 5835 5837 5839 5841 5842 5844 5846 5847 5849 5850 5851 5852 5853 5854 5856 5857 5858 5859 5859 5860 5861 5861 5862 5863 5864 5864 5865 5865 5865 5865 5866 5865 5865 5865 5864 5864 5864 5864 5864 5865 5864 5864 5863 5862 5861 5860 5859 5859 5861 5860 5859 5858 5858 5858 5858 5858 5857 5857 5856 5856 5856 5855 5855 5854 5854
5781 5783 5786 5788 5790 5792 5795 5797 5800 5802 5804 5806 5808 5810 5812 5815 5817 5819 5821 5824 5826 5828 5830 5832 5834 5836 5838 5840 5841 5843 5844 5846 5847 5848 5850 5851 5852 5853 5854 5855 5856 5856 5857 5858 5859 5860 5860 5861 5861 5862 5862 5862 5862 5863 5863 5863 5862 5861 5860 5860 5861 5862 5862 5862 5861 5860 5859 5859 5858 5857 5856 5857 5857 5856 5856 5856 5855 5855 5855 5855 5854 5854 5853 5853 5852 5852 5851 5851
5777 5779 5782 5784 5786 5789 5791 5793 5796 5798 5800 5802 5804 5807 5809 5811 5813 5815 5817 5820 5822 5824 5826 5828 5830 5833 5835 5836 5838 5840 5841 5843 5844 5845 5846 5848 5849 5850 5851 5852 5852 5853 5854 5855 5856 5857 5857 5858 5858 5859 5859 5859 5859 5859 5860 5860 5859 5858 5858 5858 5858 5858 5858 5858 5858 5857 5857 5856 5855 5854 5853 5854 5853 5852 5853 5853 5853 5852 5852 5852 5852 5851 5850 5850 5849 5849 5849 5848
5773 5775 5778 5780 5783 5785 5787 5789 5792 5794 5796 5798 5801 5803 5805 5807 5810 5812 5814 5816 5818 5820 5822 5824 5827 5829 5831 5833 5836 5837 5838 5839 5840 5842 5843 5844 5845 5846 5848 5849 5849 5850 5851 5852 5853 5853 5854 5855 5855 5856 5856 5856 5856 5856 5856 5856 5855 5855 5855 5856 5855 5855 5854 5854 5854 5853 5853 5852 5852 5852 5852 5851 5850 5849 5850 5850 5849 5849 5849 5849 5849 5848 5847 5846 5846 5846 5846 5845
5769 5771 5774 5776 5779 5781 5783 5786 5788 5790 5792 5795 5797 5799 5801 5804 5806 5808 5810 5812 5814 5816 5818 5821 5823 5825 5828 5831 5832 5833 5834 5835 5837 5838 5839 5841 5842 5843 5844 5845 5846 5847 5848 5849 5849 5850 5851 5852 5852 5853 5853 5853 5853 5853 5853 5852 5851 5851 5852 5852 5852 5852 5851 5851 5850 5849 5849 5849 5849 5848 5849 5849 5847 5846 5846 5846 5846 5846 5846 5846 5846 5845 5844 5843 5843 5843 5842 5842
5765 5767 5770 5772 5774 5777 5779 5782 5784 5786 5788 5791 5794 5796 5797 5799 5802 5804 5806 5808 5811 5813 5814 5817 5819 5821 5824 5827 5828 5829 5831 5832 5833 5834 5836 5837 5838 5839 5841 5842 5843 5844 5844 5845 5846 5847 5848 5849 5849 5850 5850 5849 5849 5849 5850 5849 5848 5848 5848 5848 5848 5849 5848 5847 5846 5845 5845 5845 5845 5845 5845 5846 5845 5844 5843 5842 5843 5843 5842 5842 5843 5842 5841 5840 5839 5839 5838 5838
5761 5763 5765 5768 5770 5773 5775 5777 5780 5782 5785 5787 5790 5791 5793 5795 5798 5799 5802 5804 5807 5808 5810 5813 5816 5818 5820 5822 5824 5826 5827 5829 5830 5831 5832 5833 5835 5835 5837 5838 5839 5840 5840 5841 5842 5844 5844 5845 5846 5846 5845 5845 5845 5846 5846 5846 5845 5844 5844 5844 5844 5844 5844 5843 5842 5841 5841 5840 5841 5841 5841 5842 5842 5842 5840 5839 5840 5841 5839 5839 5839 5839 5837 5836 5835 5834 5834 5833
5756 5759 5761 5763 5766 5768 5771 5773 5776 5778 5780 5783 5785 5787 5789 5791 5793 5795 5798 5800 5802 5803 5806 5809 5811 5813 5816 5818 5820 5822 5823 5825 5826 5826 5828 5829 5831 5831 5832 5834 5835 5836 5837 5837 5839 5840 5841 5842 5843 5842 5841 5841 5841 5842 5843 5843 5842 5841 5840 5840 5840 5840 5840 5839 5838 5838 5837 5836 5836 5837 5837 5837 5839 5838 5838 5837 5837 5837 5837 5835 5835 5835 5833 5832 5831 5830 5829 5829
5751 5754 5757 5759 5761 5764 5766 5769 5771 5774 5777 5779 5781 5782 5784 5786 5788 5791 5793 5794 5797 5799 5801 5804 5806 5810 5812 5814 5816 5817 5819 5821 5822 5822 5824 5825 5826 5826 5828 5829 5831 5832 5832 5834 5835 5836 5838 5839 5839 5838 5837 5837 5837 5838 5838 5839 5838 5838 5837 5837 5836 5836 5836 5836 5835 5834 5833 5832 5832 5833 5832 5833 5835 5835 5835 5834 5833 5834 5833 5832 5831 5830 5829 5828 5827 5826 5825 5825
5747 5749 5752 5754 5757 5759 5762 5764 5767 5770 5773 5775 5776 5777 5779 5782 5784 5786 5787 5789 5791 5794 5797 5800 5802 5805 5808 5809 5811 5813 5814 5816 5817 5818 5820 5821 5821 5822 5824 5826 5827 5827 5828 5830 5831 5832 5834 5835 5835 5834 5833 5833 5834 5834 5834 5834 5834 5834 5834 5833 5833 5833 5832 5832 5832 5830 5830 5829 5829 5829 5828 5829 5831 5832 5832 5831 5830 5830 5829 5828 5828 5826 5826 5824 5823 5822 5821 5821
5742 5744 5747 5750 5752 5754 5757 5760 5763 5766 5768 5770 5771 5773 5775 5777 5779 5781 5782 5783 5785 5790 5793 5795 5797 5800 5803 5805 5806 5808 5809 5811 5812 5814 5816 5817 5817 5818 5820 5822 5822 5823 5824 5825 5826 5828 5830 5830 5829 5830 5830 5830 5830 5830 5830 5830 5829 5829 5829 5829 5829 5829 5828 5828 5828 5826 5826 5825 5826 5825 5823 5825 5827 5828 5829 5829 5827 5826 5825 5825 5824 5822 5821 5820 5819 5818 5817 5816
5737 5739 5742 5744 5747 5750 5752 5756 5759 5761 5762 5765 5766 5768 5769 5772 5774 5776 5776 5776 5779 5786 5789 5791 5793 5796 5798 5800 5802 5803 5804 5806 5808 5809 5811 5813 5813 5814 5816 5817 5818 5820 5820 5820 5820 5823 5826 5825 5824 5825 5826 5826 5826 5826 5826 5825 5825 5825 5825 5825 5825 5825 5824 5824 5823 5822 5821 5821 5822 5821 5818 5819 5823 5825 5826 5826 5824 5823 5822 5821 5820 5818 5817 5816 5815 5814 5813 5812
5730 5733 5736 5739 5742 5744 5747 5752 5754 5754 5758 5760 5761 5762 5764 5767 5768 5769 5771 5769 5773 5781 5785 5787 5790 5791 5793 5795 5797 5799 5798 5801 5804 5805 5806 5808 5808 5810 5811 5813 5814 5816 5816 5815 5815 5818 5821 5821 5821 5821 5821 5821 5822 5822 5822 5822 5821 5821 5821 5822 5821 5820 5820 5819 5819 5819 5817 5817 5817 5817 5815 5814 5817 5820 5822 5821 5819 5819 5819 5818 5816 5814 5813 5812 5811 5810 5809 5808
5724 5728 5730 5733 5736 5739 5743 5747 5747 5750 5754 5754 5755 5757 5758 5761 5762 5764 5765 5763 5767 5777 5781 5783 5785 5786 5788 5790 5792 5792 5792 5797 5800 5799 5801 5803 5804 5806 5806 5808 5810 5811 5811 5810 5811 5814 5816 5817 5817 5817 5817 5817 5817 5818 5818 5818 5817 5817 5817 5817 5817 5816 5816 5815 5815 5815 5814 5813 5811 5811 5812 5810 5810 5814 5818 5816 5815 5815 5815 5814 5812 5810 5809 5808 5807 5806 5806 5805
5719 5721 5724 5728 5730 5734 5738 5740 5743 5746 5747 5747 5750 5751 5752 5754 5755 5758 5759 5756 5761 5771 5774 5777 5780 5781 5783 5784 5786 5786 5787 5792 5793 5794 5797 5797 5798 5800 5801 5803 5805 5805 5806 5805 5807 5809 5810 5810 5811 5813 5813 5813 5814 5813 5812 5813 5812 5812 5813 5813 5812 5812 5811 5811 5811 5810 5809 5808 5806 5807 5810 5807 5804 5807 5809 5810 5811 5811 5810 5808 5807 5806 5805 5804 5803 5802 5802 5801
5712 5715 5719 5722 5724 5728 5732 5735 5739 5740 5740 5742 5743 5744 5746 5747 5749 5751 5750 5750 5758 5766 5767 5770 5774 5776 5777 5779 5780 5781 5783 5786 5787 5788 5791 5792 5793 5795 5797 5798 5799 5800 5800 5800 5803 5804 5804 5805 5806 5807 5809 5809 5809 5809 5808 5808 5808 5808 5808 5808 5808 5807 5807 5806 5805 5805 5804 5802 5802 5805 5807 5804 5800 5801 5801 5803 5806 5806 5805 5804 5802 5801 5800 5800 5799 5798 5798 5798
5705 5710 5712 5715 5719 5723 5726 5731 5733 5733 5734 5735 5735 5737 5739 5740 5743 5743 5741 5748 5758 5761 5761 5762 5766 5770 5772 5774 5775 5776 5778 5780 5782 5783 5784 5786 5788 5790 5791 5792 5793 5794 5795 5796 5797 5798 5799 5800 5800 5801 5803 5804 5804 5803 5803 5803 5803 5804 5804 5803 5803 5802 5802 5801 5800 5800 5798 5797 5800 5802 5802 5799 5796 5795 5796 5798 5799 5800 5801 5800 5798 5797 5796 5795 5795 5794 5794 5794
5700 5703 5705 5709 5714 5716 5720 5725 5726 5726 5726 5727 5728 5730 5731 5733 5735 5733 5736 5749 5756 5755 5754 5754 5759 5765 5767 5769 5770 5771 5773 5774 5776 5777 5778 5781 5782 5784 5786 5786 5788 5789 5790 5791 5792 5793 5795 5795 5795 5795 5796 5797 5798 5798 5799 5800 5800 5800 5800 5799 5798 5796 5796 5795 5795 5795 5794 5794 5797 5797 5796 5794 5791 5791 5792 5793 5793 5794 5795 5795 5793 5793 5792 5791 5791 5790 5790 5790
5693 5696 5698 5703 5707 5709 5715 5718 5718 5717 5718 5720 5720 5721 5724 5724 5722 5725 5736 5748 5748 5746 5746 5746 5752 5758 5759 5762 5764 5765 5767 5768 5770 5772 5773 5775 5776 5778 5781 5782 5783 5784 5784 5786 5786 5788 5789 5790 5790 5790 5791 5792 5793 5794 5795 5795 5795 5795 5794 5793 5792 5791 5790 5789 5789 5790 5790 5791 5792 5791 5789 5787 5786 5788 5790 5790 5789 5788 5789 5789 5789 5789 5788 5787 5786 5786 5786 5786
5686 5689 5692 5696 5699 5704 5709 5709 5708 5709 5710 5712 5712 5713 5715 5711 5712 5724 5736 5740 5738 5738 5740 5741 5746 5750 5751 5754 5758 5760 5762 5763 5765 5767 5768 5770 5771 5773 5776 5777 5778 5778 5779 5782 5781 5782 5783 5784 5785 5785 5786 5788 5788 5789 5789 5789 5789 5788 5788 5788 5787 5786 5784 5784 5785 5785 5785 5786 5785 5785 5783 5780 5781 5784 5785 5786 5786 5784 5785 5785 5784 5783 5783 5782 5782 5781 5782 5782
5680 5682 5685 5689 5692 5696 5699 5698 5699 5701 5701 5703 5703 5705 5703 5701 5711 5726 5732 5732 5732 5732 5735 5736 5738 5742 5743 5746 5750 5754 5756 5758 5760 5762 5763 5764 5766 5769 5771 5772 5774 5774 5775 5776 5776 5776 5777 5778 5781 5781 5782 5783 5783 5783 5783 5783 5782 5782 5783 5782 5781 5782 5781 5781 5781 5779 5779 5779 5779 5778 5776 5775 5777 5779 5779 5779 5780 5781 5781 5780 5778 5778 5777 5777 5777 5777 5777 5778
5672 5674 5678 5681 5684 5688 5691 5691 5692 5692 5691 5693 5694 5693 5691 5697 5714 5724 5724 5725 5724 5725 5729 5729 5730 5734 5736 5738 5742 5746 5749 5752 5754 5756 5757 5759 5761 5764 5766 5768 5769 5769 5769 5770 5770 5771 5770 5772 5776 5775 5776 5777 5776 5777 5777 5777 5776 5777 5777 5776 5776 5778 5777 5776 5775 5774 5773 5773 5772 5771 5770 5771 5773 5773 5772 5772 5774 5776 5775 5774 5773 5772 5772 5772 5773 5773 5773 5773
5663 5666 5669 5674 5679 5682 5683 5685 5686 5684 5682 5683 5681 5680 5686 5699 5713 5717 5715 5717 5718 5721 5725 5724 5725 5728 5730 5732 5735 5738 5742 5745 5748 5749 5751 5754 5756 5758 5761 5762 5763 5763 5764 5764 5764 5765 5765 5766 5769 5769 5769 5771 5770 5770 5771 5771 5771 5770 5770 5771 5772 5773 5772 5770 5769 5769 5768 5766 5766 5766 5765 5766 5767 5767 5768 5767 5768 5769 5768 5768 5768 5767 5767 5768 5768 5768 5769 5769
5656 5659 5662 5668 5674 5676 5676 5679 5679 5676 5675 5673 5670 5675 5687 5698 5706 5707 5708 5709 5711 5715 5718 5718 5719 5722 5723 5725 5727 5730 5733 5736 5739 5741 5744 5746 5748 5752 5755 5756 5757 5757 5758 5759 5757 5758 5759 5759 5761 5763 5763 5764 5764 5764 5765 5765 5765 5764 5765 5767 5767 5766 5765 5764 5763 5763 5762 5759 5760 5761 5761 5762 5761 5761 5763 5763 5762 5763 5763 5763 5764 5764 5764 5763 5763 5764 5764 5765
5651 5652 5654 5662 5669 5669 5670 5673 5672 5670 5669 5665 5664 5673 5684 5690 5695 5697 5698 5700 5702 5706 5710 5711 5713 5714 5716 5717 5719 5723 5724 5726 5730 5733 5735 5738 5740 5746 5749 5749 5751 5751 5752 5751 5749 5751 5753 5752 5754 5757 5757 5757 5757 5757 5757 5759 5760 5760 5761 5762 5761 5759 5759 5758 5757 5756 5756 5753 5753 5754 5755 5757 5757 5757 5758 5758 5757 5757 5758 5759 5760 5760 5760 5759 5759 5760 5760 5760
5642 5643 5649 5658 5661 5662 5665 5666 5666 5663 5660 5657 5660 5671 5679 5683 5687 5687 5688 5691 5694 5697 5701 5705 5707 5707 5708 5711 5713 5715 5716 5718 5722 5724 5726 5729 5733 5738 5741 5742 5744 5744 5744 5742 5742 5744 5745 5745 5747 5750 5750 5749 5749 5750 5751 5754 5755 5755 5755 5754 5753 5753 5752 5752 5751 5750 5750 5748 5747 5748 5749 5751 5753 5753 5753 5752 5752 5753 5753 5755 5755 5755 5756 5755 5755 5755 5755 5755
5634 5635 5645 5654 5654 5656 5660 5660 5658 5653 5651 5653 5658 5668 5674 5676 5678 5680 5682 5685 5686 5688 5693 5698 5700 5699 5701 5704 5706 5708 5709 5710 5713 5716 5718 5721 5725 5729 5731 5733 5735 5737 5737 5735 5736 5737 5737 5737 5740 5742 5744 5743 5742 5745 5747 5747 5748 5747 5746 5746 5747 5746 5745 5745 5744 5745 5744 5743 5743 5742 5742 5745 5747 5747 5746 5747 5747 5748 5749 5750 5751 5751 5751 5751 5751 5751 5751 5751
5627 5629 5639 5647 5646 5649 5652 5650 5647 5643 5644 5650 5657 5663 5668 5669 5672 5674 5676 5677 5678 5682 5687 5689 5690 5692 5695 5697 5698 5701 5702 5702 5705 5708 5710 5713 5717 5720 5722 5725 5727 5730 5729 5727 5728 5730 5730 5730 5733 5734 5736 5736 5736 5738 5739 5738 5738 5739 5740 5740 5740 5740 5739 5738 5738 5740 5740 5739 5739 5737 5735 5739 5742 5740 5741 5742 5742 5743 5744 5745 5746 5747 5746 5746 5746 5746 5746 5746
5619 5623 5633 5638 5638 5643 5642 5639 5638 5637 5639 5646 5653 5658 5661 5664 5668 5669 5669 5671 5673 5677 5680 5682 5683 5686 5687 5689 5692 5693 5693 5695 5698 5700 5702 5706 5710 5712 5714 5716 5718 5719 5719 5719 5721 5724 5722 5722 5723 5725 5728 5730 5730 5730 5731 5731 5730 5730 5731 5733 5734 5735 5734 5733 5734 5735 5735 5733 5733 5731 5730 5734 5737 5735 5736 5737 5737 5738 5738 5739 5740 5740 5741 5740 5740 5741 5741 5741
5611 5620 5627 5627 5630 5635 5633 5630 5631 5631 5634 5641 5647 5651 5655 5658 5661 5662 5665 5667 5668 5671 5674 5676 5677 5679 5680 5682 5685 5686 5687 5688 5690 5694 5697 5699 5702 5704 5705 5706 5708 5709 5710 5711 5713 5715 5715 5714 5716 5719 5722 5724 5723 5723 5723 5723 5722 5722 5725 5727 5729 5729 5729 5728 5728 5728 5727 5727 5727 5725 5724 5728 5731 5731 5732 5733 5732 5732 5732 5733 5733 5734 5734 5734 5734 5735 5735 5735
5607 5613 5615 5617 5622 5625 5622 5622 5623 5625 5631 5636 5638 5643 5647 5651 5653 5656 5660 5662 5662 5665 5668 5669 5672 5673 5675 5677 5678 5680 5682 5683 5685 5688 5690 5691 5694 5696 5697 5698 5700 5701 5702 5704 5706 5707 5707 5707 5710 5712 5714 5715 5715 5715 5715 5717 5718 5719 5720 5721 5721 5721 5722 5721 5721 5721 5720 5721 5721 5719 5719 5723 5726 5725 5726 5727 5727 5727 5727 5727 5727 5728 5728 5728 5728 5728 5729 5729
5598 5600 5604 5609 5612 5613 5614 5617 5619 5623 5628 5629 5631 5637 5640 5643 5649 5652 5654 5655 5657 5660 5661 5664 5667 5668 5670 5671 5672 5674 5677 5678 5680 5682 5683 5684 5687 5689 5690 5691 5693 5694 5696 5698 5699 5700 5699 5700 5703 5705 5706 5707 5708 5709 5712 5713 5713 5713 5713 5714 5714 5714 5715 5714 5715 5715 5713 5712 5714 5713 5715 5719 5721 5719 5720 5720 5720 5721 5721 5721 5722 5722 5722 5721 5721 5721 5721 5722
5586 5589 5596 5601 5601 5602 5607 5613 5614 5616 5621 5622 5625 5630 5632 5636 5643 5644 5645 5648 5651 5654 5656 5658 5660 5662 5664 5666 5668 5669 5671 5673 5675 5676 5678 5679 5680 5682 5683 5685 5687 5688 5690 5692 5692 5693 5692 5693 5696 5698 5699 5702 5704 5705 5706 5706 5706 5706 5707 5708 5708 5708 5709 5709 5708 5707 5706 5706 5708 5710 5712 5714 5714 5714 5714 5715 5714 5715 5715 5716 5716 5716 5716 5716 5715 5715 5715 5715
5575 5579 5589 5594 5595 5594 5597 5604 5607 5609 5615 5617 5619 5623 5626 5631 5635 5635 5637 5643 5646 5649 5650 5651 5654 5656 5659 5662 5663 5664 5665 5667 5670 5672 5673 5673 5674 5676 5677 5679 5681 5682 5684 5685 5685 5686 5685 5687 5691 5692 5694 5698 5699 5698 5698 5698 5698 5700 5701 5703 5703 5703 5703 5702 5700 5702 5704 5702 5703 5707 5708 5706 5707 5708 5708 5709 5709 5709 5710 5709 5709 5710 5710 5709 5709 5709 5709 5709
5566 5574 5583 5586 5586 5586 5589 5596 5602 5605 5608 5609 5611 5615 5618 5622 5625 5627 5632 5638 5639 5641 5642 5644 5648 5652 5655 5657 5658 5658 5659 5660 5664 5668 5669 5668 5670 5671 5672 5674 5675 5677 5678 5679 5679 5680 5680 5682 5686 5686 5687 5691 5692 5691 5692 5691 5691 5693 5695 5697 5698 5697 5696 5695 5695 5699 5699 5695 5697 5701 5701 5699 5702 5704 5703 5703 5704 5704 5703 5702 5702 5703 5703 5702 5702 5702 5702 5702
5559 5566 5573 5574 5575 5580 5587 5592 5595 5597 5599 5600 5603 5607 5610 5614 5619 5623 5627 5629 5630 5633 5636 5638 5645 5649 5650 5651 5650 5651 5653 5655 5659 5664 5665 5664 5665 5666 5667 5668 5669 5671 5672 5673 5674 5674 5675 5678 5680 5679 5680 5684 5684 5684 5685 5685 5685 5687 5688 5690 5692 5691 5690 5689 5691 5693 5692 5689 5692 5695 5694 5695 5697 5698 5698 5698 5698 5698 5697 5696 5696 5696 5696 5696 5696 5695 5695 5694
5551 5557 5563 5565 5567 5574 5581 5583 5583 5586 5590 5592 5595 5599 5603 5608 5613 5617 5619 5620 5624 5629 5630 5634 5642 5644 5643 5643 5643 5644 5649 5653 5655 5657 5658 5657 5658 5660 5661 5662 5663 5665 5666 5666 5667 5668 5669 5672 5673 5673 5673 5675 5677 5677 5678 5678 5679 5680 5682 5684 5684 5682 5681 5682 5685 5687 5686 5686 5689 5689 5688 5690 5691 5691 5693 5692 5690 5690 5690 5689 5690 5690 5689 5689 5688 5687 5687 5687
5544 5549 5552 5554 5559 5565 5571 5573 5574 5577 5580 5582 5586 5593 5598 5602 5608 5612 5612 5614 5619 5622 5623 5630 5637 5637 5634 5635 5636 5641 5647 5649 5648 5649 5649 5649 5651 5654 5655 5656 5658 5658 5659 5660 5660 5661 5663 5665 5667 5667 5665 5667 5671 5671 5670 5672 5672 5672 5676 5679 5675 5673 5675 5678 5681 5683 5682 5682 5683 5681 5682 5685 5685 5685 5687 5684 5682 5682 5682 5683 5683 5682 5682 5681 5680 5680 5680 5680
5535 5539 5543 5545 5549 5555 5560 5563 5565 5567 5569 5574 5581 5588 5591 5596 5603 5604 5602 5605 5613 5616 5618 5624 5628 5625 5624 5627 5632 5639 5643 5642 5640 5641 5641 5642 5644 5646 5647 5648 5650 5651 5652 5653 5653 5654 5656 5657 5660 5660 5658 5660 5665 5664 5664 5665 5662 5663 5671 5675 5670 5669 5672 5674 5675 5676 5676 5676 5676 5674 5676 5680 5678 5676 5678 5677 5677 5676 5675 5676 5676 5675 5675 5674 5673 5674 5674 5674